Weather History for Istanbul, Turkey

Change the Weather History Date:

Thursday, September 4, 2014

  Actual Average Record
Temperature  
Mean Temperature 77 °F -  
Max Temperature 84 °F 73 °F 89 °F (2000)
Min Temperature 70 °F 60 °F 60 °F (2003)
Cooling Degree Days 12    
Growing Degree Days 27 (Base 50)    
Moisture  
Dew Point 68 °F    
Average Humidity 72    
Maximum Humidity 88    
Minimum Humidity 52    
Precipitation  
Precipitation 0.00 in - - ()
Sea Level Pressure  
Sea Level Pressure 29.81 in    
Wind  
Wind Speed 11 mph ()    
Max Wind Speed 18 mph    
Max Gust Speed -    
Visibility 6.1 miles    
Events Rain , Thunderstorm    
Averages and records for this station are not official NWS values.
T = Trace of Precipitation, MM = Missing Value Source: Averaged Metar Reports

Daily Weather History Graph

Daily Weather History Graph

Search for Another Location

Airport:

Trip Planner

Search our weather history database for the weather conditions in past years. The results will help you decide how hot, cold, wet, or windy it might be!

Date:

Astronomy

Sep. 04, 2014 Rise Set
Actual Time 6:34 AM EEST 7:32 PM EEST
Civil Twilight 6:06 AM EEST 8:00 PM EEST
Nautical Twilight 5:32 AM EEST 8:34 PM EEST
Astronomical Twilight 4:57 AM EEST 9:08 PM EEST
Moon 3:54 PM EEST (9/4) 1:04 AM EEST (9/4)
Length of Visible Light 13h 54m
Length of Day
12h 58m
Waxing Gibbous, 71% of the Moon is Illuminated
Sep 4
Waxing Gibbous
Sep 9
Full
Sep 16
Last Quarter
Sep 24
New
Oct 1
First Quarter

Hourly Weather History & Observations

Time (EEST) Temp. Heat Index Dew Point Humidity Pressure Visibility Wind Dir Wind Speed Gust Speed Precip Events Conditions
12:00 AM 74 °F - 69 °F 79% 29.76 in 6 mi North 13.8 mph - - Thunderstorm Light Thunderstorm
12:07 AM 73.4 °F - 68.0 °F 83% 29.74 in 6.2 mi NNW 10.4 mph - N/A Rain , Thunderstorm Light Thunderstorms and Rain
12:20 AM 73.4 °F - 69.8 °F 88% 29.74 in 6.2 mi NNW 11.5 mph - N/A Rain , Thunderstorm Light Thunderstorms and Rain
12:50 AM 71.6 °F - 66.2 °F 83% 29.80 in 6.2 mi West 15.0 mph - N/A Rain , Thunderstorm Light Thunderstorms and Rain
1:20 AM 73.4 °F - 68.0 °F 83% 29.77 in 6.2 mi NNW 15.0 mph - N/A Rain , Thunderstorm Light Thunderstorms and Rain
1:50 AM 73.4 °F - 69.8 °F 88% 29.83 in 5.0 mi West 8.1 mph - N/A Rain , Thunderstorm Thunderstorms and Rain
2:20 AM 73.4 °F - 69.8 °F 88% 29.77 in 6.2 mi NW 18.4 mph - N/A Rain , Thunderstorm Light Thunderstorms and Rain
2:50 AM 73.4 °F - 69.8 °F 88% 29.80 in 6.2 mi NNW 17.3 mph - N/A Rain , Thunderstorm Light Thunderstorms and Rain
3:00 AM 73 °F - 69 °F 82% 29.79 in 6 mi NNW 17.3 mph - - Rain , Thunderstorm Thunderstorms and Rain
3:20 AM 71.6 °F - 66.2 °F 83% 29.77 in 6.2 mi NNW 18.4 mph - N/A   Mostly Cloudy
3:50 AM 71.6 °F - 66.2 °F 83% 29.77 in 6.2 mi North 12.7 mph - N/A   Mostly Cloudy
4:20 AM 71.6 °F - 66.2 °F 83% 29.80 in 6.2 mi North 15.0 mph - N/A   Mostly Cloudy
4:50 AM 69.8 °F - 66.2 °F 88% 29.80 in 6.2 mi North 10.4 mph - N/A   Mostly Cloudy
5:20 AM 69.8 °F - 66.2 °F 88% 29.80 in 6.2 mi NNW 12.7 mph - N/A   Mostly Cloudy
5:50 AM 71.6 °F - 64.4 °F 78% 29.80 in 6.2 mi North 10.4 mph - N/A   Mostly Cloudy
6:00 AM 72 °F - 65 °F 72% 29.80 in 6 mi North 10.4 mph - -   Partly Cloudy
6:20 AM 73.4 °F - 62.6 °F 69% 29.80 in 6.2 mi NNE 8.1 mph - N/A   Scattered Clouds
6:50 AM 73.4 °F - 64.4 °F 73% 29.80 in 6.2 mi NE 5.8 mph - N/A   Scattered Clouds
7:20 AM 73.4 °F - 64.4 °F 73% 29.80 in 6.2 mi ENE 5.8 mph - N/A   Scattered Clouds
7:50 AM 73.4 °F - 66.2 °F 78% 29.80 in 6.2 mi ENE 6.9 mph - N/A   Scattered Clouds
8:20 AM 75.2 °F - 66.2 °F 73% 29.80 in 6.2 mi NE 5.8 mph - N/A   Scattered Clouds
8:50 AM 77.0 °F - 66.2 °F 69% 29.80 in - NE 6.9 mph - N/A   Clear
9:00 AM 77 °F - 66 °F 61% 29.81 in 6 mi NE 6.9 mph - -  
9:20 AM 77.0 °F - 68.0 °F 74% 29.80 in - NE 8.1 mph - N/A   Clear
9:50 AM 78.8 °F - 68.0 °F 69% 29.83 in - East 6.9 mph - N/A   Clear
10:20 AM 80.6 °F 82.7 °F 66.2 °F 61% 29.83 in 6.2 mi East 8.1 mph - N/A   Scattered Clouds
10:50 AM 80.6 °F 82.7 °F 66.2 °F 61% 29.83 in 6.2 mi East 8.1 mph - N/A   Mostly Cloudy
11:20 AM 80.6 °F 83.2 °F 68.0 °F 65% 29.83 in 6.2 mi East 5.8 mph - N/A   Mostly Cloudy
11:50 AM 80.6 °F 82.7 °F 66.2 °F 61% 29.83 in 6.2 mi ESE 4.6 mph - N/A   Mostly Cloudy
12:00 PM 81 °F - 66 °F 52% 29.83 in 6 mi ESE 4.6 mph - -   Mostly Cloudy
12:20 PM 80.6 °F 83.2 °F 68.0 °F 65% 29.83 in 6.2 mi South 4.6 mph - N/A   Mostly Cloudy
12:50 PM 80.6 °F 83.9 °F 69.8 °F 70% 29.83 in 6.2 mi WSW 6.9 mph - N/A   Mostly Cloudy
1:20 PM 78.8 °F - 68.0 °F 69% 29.83 in 6.2 mi SW 8.1 mph - N/A   Mostly Cloudy
1:50 PM 80.6 °F 83.9 °F 69.8 °F 70% 29.80 in 6.2 mi WSW 9.2 mph - N/A   Mostly Cloudy
2:20 PM 82.4 °F 85.4 °F 68.0 °F 62% 29.80 in 6.2 mi SW 9.2 mph - N/A   Mostly Cloudy
2:50 PM 82.4 °F 86.3 °F 69.8 °F 66% 29.80 in 6.2 mi North 12.7 mph - N/A   Scattered Clouds
3:00 PM 82 °F - 68 °F 53% 29.81 in 6 mi North 12.7 mph - -   Partly Cloudy
3:20 PM 84.2 °F 87.3 °F 68.0 °F 58% 29.80 in 6.2 mi NNE 11.5 mph - N/A   Scattered Clouds
3:50 PM 84.2 °F 87.3 °F 68.0 °F 58% 29.80 in 6.2 mi North 13.8 mph - N/A   Scattered Clouds
4:20 PM 84.2 °F 87.3 °F 68.0 °F 58% 29.80 in 6.2 mi NNE 11.5 mph - N/A   Scattered Clouds
4:50 PM 82.4 °F 85.4 °F 68.0 °F 62% 29.80 in 6.2 mi NNE 15.0 mph - N/A   Partly Cloudy
5:20 PM 82.4 °F 85.4 °F 68.0 °F 62% 29.80 in 6.2 mi NNE 15.0 mph - N/A   Partly Cloudy
5:50 PM 82.4 °F 85.4 °F 68.0 °F 62% 29.80 in 6.2 mi NNE 13.8 mph - N/A   Partly Cloudy
6:00 PM 82 °F - 67 °F 52% 29.81 in 6 mi NNE 13.8 mph - -   Scattered Clouds
6:20 PM 80.6 °F 83.2 °F 68.0 °F 65% 29.80 in 6.2 mi NNE 16.1 mph - N/A   Partly Cloudy
6:50 PM 80.6 °F 83.2 °F 68.0 °F 65% 29.80 in 6.2 mi NNE 13.8 mph - N/A   Partly Cloudy
7:20 PM 78.8 °F - 68.0 °F 69% 29.80 in 6.2 mi North 12.7 mph - N/A   Partly Cloudy
7:50 PM 78.8 °F - 69.8 °F 74% 29.80 in 6.2 mi North 13.8 mph - N/A   Partly Cloudy
8:20 PM 78.8 °F - 69.8 °F 74% 29.83 in 6.2 mi North 15.0 mph - N/A   Partly Cloudy
8:50 PM 77.0 °F - 69.8 °F 78% 29.83 in 6.2 mi NNE 12.7 mph - N/A   Partly Cloudy
9:00 PM 78 °F - 69 °F 68% 29.83 in 6 mi NNE 12.7 mph - -   Scattered Clouds
9:20 PM 78.8 °F - 69.8 °F 74% 29.83 in 6.2 mi NNE 9.2 mph - N/A   Partly Cloudy
9:50 PM 78.8 °F - 69.8 °F 74% 29.83 in 6.2 mi NE 9.2 mph - N/A   Partly Cloudy
10:20 PM 77.0 °F - 69.8 °F 78% 29.83 in 6.2 mi NNE 9.2 mph - N/A   Partly Cloudy
10:50 PM 78.8 °F - 69.8 °F 74% 29.83 in 6.2 mi NNE 9.2 mph - N/A   Partly Cloudy
11:20 PM 77.0 °F - 69.8 °F 78% 29.83 in 6.2 mi NNE 9.2 mph - N/A   Partly Cloudy
11:50 PM 77.0 °F - 69.8 °F 78% 29.83 in 6.2 mi NNE 10.4 mph - N/A   Partly Cloudy